Location: �terpigny
(49.8910°N, 2.9249°E)
Time: 09:57:17
(UTC+00:00)

CUBESAT XI-V - Pass Details

Date: 30 June 2022
Orbit: 668 x 690 km, 98.1° (Epoch: 17 August)

Event Time Altitude Azimuth Distance (km) Brightness Sun altitude
Exits shadow 02:21:41 13° 213° (SSW) 1,914 ? -9.7°
Maximum altitude 02:24:59 27° 266° (W) 1,297 ? -9.4°
Drops below altitude 10° 02:28:54 10° 324° (NW) 2,112 ? -9.1°
Sets 02:31:27 0° 337° (NNW) 3,028 ? -8.8°
